This is the latest recevied weather packets stored in our database for station/object KI5MKI. If no packets are shown the sender has not sent any weather packets the latest 10 day(s).
| Time | Temp. | Humidity | Pressure | Rain* | Wind** | Luminosity | Snow |
|---|---|---|---|---|---|---|---|
| 1777747735 | 22.78° C | 37% | 1021.4 hPa | 0 mm | - | 939 W/m² | - |
| 1777747430 | 23.33° C | 35% | 1021.7 hPa | 0 mm | - | 942 W/m² | - |
| 1777747127 | 23.33° C | 37% | 1021.5 hPa | 0 mm | - | 940 W/m² | - |
| 1777746823 | 23.33° C | 40% | 1021.6 hPa | 0 mm | - | 943 W/m² | - |
| 1777746518 | 22.78° C | 42% | 1021.8 hPa | 0 mm | - | 943 W/m² | - |
| 1777746214 | 22.78° C | 35% | 1021.9 hPa | 0 mm | - | 946 W/m² | - |
| 1777745911 | 23.33° C | 38% | 1022.1 hPa | 0 mm | - | 948 W/m² | - |
| 1777745610 | 23.33° C | 37% | 1021.9 hPa | 0 mm | - | 951 W/m² | - |
| 1777745307 | 22.78° C | 35% | 1021.9 hPa | 0 mm | - | 944 W/m² | - |
| 1777745004 | 22.78° C | 37% | 1022.1 hPa | 0 mm | - | 942 W/m² | - |
| 1777744700 | 22.22° C | 36% | 1022.1 hPa | 0 mm | - | 942 W/m² | - |
| 1777744394 | 22.22° C | 40% | 1022 hPa | 0 mm | - | 942 W/m² | - |
| 1777744091 | 22.22° C | 40% | 1022.1 hPa | 0 mm | - | 939 W/m² | - |
| 1777743789 | 22.22° C | 35% | 1022.3 hPa | 0 mm | - | 934 W/m² | - |
| 1777743485 | 22.22° C | 37% | 1022.4 hPa | 0 mm | - | 929 W/m² | - |
| 1777743182 | 22.78° C | 33% | 1022.4 hPa | 0 mm | - | 928 W/m² | - |
| 1777742880 | 21.67° C | 37% | 1022.3 hPa | 0 mm | - | 920 W/m² | - |
| 1777742576 | 22.22° C | 36% | 1022.3 hPa | 0 mm | - | 909 W/m² | - |
| 1777742272 | 22.22° C | 39% | 1022.4 hPa | 0 mm | - | 904 W/m² | - |
| 1777741969 | 22.22° C | 39% | 1022.5 hPa | 0 mm | - | 884 W/m² | - |
| 1777741666 | 21.67° C | 40% | 1022.4 hPa | 0 mm | - | 868 W/m² | - |
| 1777741363 | 21.67° C | 42% | 1022.5 hPa | 0 mm | - | 829 W/m² | - |
| 1777741059 | 21.67° C | 39% | 1022.5 hPa | 0 mm | - | 815 W/m² | - |
| 1777740756 | 21.67° C | 37% | 1022.4 hPa | 0 mm | - | 805 W/m² | - |
| 1777740453 | 21.67° C | 38% | 1022.5 hPa | 0 mm | - | 779 W/m² | - |
* Rain latest hour (hover to see other rain measurements)
** Current wind speed in m/s (hover to see current wind gust speed)